Other Public Products
Issued by NWS Grand Forks, ND

Home | Current Version | Previous Version | Graphics & Text | Print | Product List | Glossary On
Versions: 1 2 3 4 5 6 7 8 9 10 11 12 13 14 15 16 17 18 19 20 21 22 23 24 25 26 27 28 29 30 31 32 33 34 35 36 37 38 39 40 41 42 43 44 45 46 47 48 49 50
633
FPUS83 KFGF 270810
OPUFGF
PRAIRIE TO PINES WEATHER ROUNDUP
NATIONAL WEATHER SERVICE EASTERN NORTH DAKOTA/GRAND FORKS ND
300 AM CDT THU APR 27 2017

 **SATELLITE DATA USED TO AUGMENT SKY COVER AT AUTOMATED STATIONS**
 *****  WEATHER ACROSS EASTERN NORTH DAKOTA  *****

CITY           SKY/WX    TMP DP  RH WIND       PRES   REMARKS
GRAND FORKS    FLURRIES  29  26  89 NE16      29.74F WCI  17
GRAND FORKS AF MIX PCPN  28  25  91 NE14      29.74F WCI  17
GRAND CITY NWS NOT AVBL
BUXTON         NOT AVBL
DEVILS LAKE    MOCLDY    29  25  85 N6        29.75F WCI  23
FARGO          CLOUDY    27  24  89 N16       29.68F WCI  15
WAHPETON ARPT  CLOUDY    28  25  86 N15       29.66S WCI  17
$$

 *****  WEATHER ACROSS CENTRAL AND WESTERN NORTH DAKOTA  *****

CITY           SKY/WX    TMP DP  RH WIND       PRES   REMARKS
JAMESTOWN      CLOUDY    29  25  85 N9        29.72F WCI  20
BISMARCK       CLOUDY    36  27  69 N6        29.76F
MINOT          FAIR      22  19  89 NW6       29.78F WCI  14
MINOT AFB      FAIR      23  20  90 N6        29.78F WCI  15
GARRISON       NOT AVBL
WILLISTON      FAIR      32  26  78 E6        29.76S
DICKINSON      FAIR      25  22  88 SE6       29.71F WCI  18
HETTINGER      FAIR      25  22  88 SE5       29.72F WCI  19
$$

 *****  OTHER OBSERVATIONS NORTHEAST NORTH DAKOTA  *****

CITY           SKY/WX    TMP DP  RH WIND       PRES   REMARKS
WALHALLA       NOT AVBL
LANGDON        PTSUNNY   32  18  55 NE14      29.74F WCI  22
CAVALIER       NOT AVBL
GRAFTON        PTSUNNY   28  27  93 NE16      29.78S WCI  17
CANDO          NOT AVBL
FORT TOTTEN      N/A     31  23  71 N3        29.95S
ROLLA          NOT AVBL
RUGBY          NOT AVBL
 ***** THE ABOVE OBSERVATIONS ARE NON NWS ARE NOT QUALITY
        CONTROLLED AND MAY MIS-REPORT RAIN FOR SNOW...
$$

 *****  OTHER OBSERVATIONS SOUTHEAST NORTH DAKOTA *****

CITY           SKY/WX    TMP DP  RH WIND       PRES   REMARKS
COOPERSTOWN    CLOUDY    28  27  93 NE13      29.72F WCI  18
VALLEY CITY    CLOUDY    27  27 100 N15       29.72F WCI  15
OAKES          NOT AVBL
GWINNER        CLOUDY    28  27  93 MISG      29.69S
SHEYENNE NWR     N/A     26  23  89 N7        29.95S WCI  18
BUFFALO        NOT AVBL
WYNDMERE         N/A     28  27  93 N14         N/A  WCI  17
 ***** THE ABOVE OBSERVATIONS ARE NON NWS ARE NOT QUALITY
       CONTROLLED AND MAY MIS-REPORT RAIN FOR SNOW...
$$

  *****  WEATHER ACROSS NORTHERN MINNESOTA  *****

CITY           SKY/WX    TMP DP  RH WIND       PRES   REMARKS
FLAG ISLAND    CLOUDY    27  18  69 NE14G21   29.73F WCI  15
WARROAD        LGT SNOW  27  21  80 NE18      29.72F WCI  13
ROSEAU         FLURRIES  27  21  80 NE13      29.72F WCI  16
HALLOCK        CLOUDY    30  25  80 NE6       29.76F WCI  24
THF RVR FALLS  FLURRIES  24  20  84 NE10      29.71F WCI  14
HALSTAD          N/A     26  23  87 N16         N/A  WCI  14
FOSSTON        FLURRIES  21  19  93 N13G18    29.67S WCI   9
BAUDETTE       LGT SNOW  23  18  81 NE12      29.69F VSB 1   WCI  12
WASKISH        CLOUDY    23  18  80 NE8       29.67F WCI  14
CROOKSTON      CLOUDY    27  21  80 NE14      29.73F WCI  15
$$
  *****  WEATHER ACROSS CENTRAL AND WEST MINNESOTA  *****

CITY           SKY/WX    TMP DP  RH WIND       PRES   REMARKS
BEMIDJI        MOCLDY    22  18  85 N9        29.63F WCI  12
PARK RAPIDS    CLOUDY    26  19  74 N10       29.60S WCI  16
WADENA         MIX PCPN  25  23  93 N6        29.60S WCI  18
DETROIT LAKES  FAIR      28  23  80 NE9       29.63S WCI  20
MOORHEAD       CLOUDY    27  25  93 N7        29.68F WCI  19
FERGUS FALLS   CLOUDY    28  25  86 N8        29.64S WCI  20
ELBOW LAKE     CLOUDY    29  26  89 N7        29.62S WCI  22
MORRIS MN      CLOUDY    30  28  93 NW13      29.61S FOG     WCI  20
STAPLES        LGT SNOW  27  25  93 N6        29.59F WCI  20
WHEATON        CLOUDY    28  25  86 NW14      29.67S WCI  17
$$
  *****  WEATHER ELSEWHERE ACROSS MINNESOTA  *****

CITY           SKY/WX    TMP DP  RH WIND       PRES   REMARKS
DULUTH         FRZ DRZL  24  22  91 N9        29.54F WCI  14
INTRNTL FALLS  CLOUDY    22  14  71 NE15      29.66F WCI   9
ELY            CLOUDY    19  16  86 N5        29.58F WCI  13
CLOQUET        CLOUDY    25  21  86 N9        29.56F WCI  15
BRAINERD       CLOUDY    27  24  89 N8        29.58F WCI  19
HIBBING        CLOUDY    21  17  84 N12       29.57F WCI   9
ALEXANDRIA     CLOUDY    29  25  85 N8        29.60S WCI  21
SAINT CLOUD    CLOUDY    31  29  92 NW8       29.57S WCI  23
MINNEAPOLIS    CLOUDY    35  30  82 N7        29.56S
$$

  *****  WEATHER ACROSS SOUTH DAKOTA  *****

CITY           SKY/WX    TMP DP  RH WIND       PRES   REMARKS
SIOUX FALLS    CLOUDY    31  25  78 NW12      29.65F WCI  22
BROOKINGS      CLOUDY    28  24  85 N13G22    29.64S WCI  17
WATERTOWN      CLOUDY    27  23  85 N14       29.63S WCI  16
HURON          CLOUDY    30  24  78 N10       29.70F WCI  21
SISSETON         N/A     28  25  88 N18       29.66S WCI  15
ABERDEEN       CLOUDY    29  23  78 N10       29.72F WCI  20
MITCHELL       CLOUDY    32  27  81 NW12      29.70F WCI  23
PIERRE         FAIR      23  20  88 CALM      29.72F
MOBRIDGE       CLOUDY    32  24  72 CALM      29.71F
RAPID CITY     FAIR      26  24  92 W3        29.67F
$$

  *****  SOME WEATHER IN NEARBY STATES *****

CITY           SKY/WX    TMP DP  RH WIND       PRES   REMARKS
GLASGOW MT     FAIR      34  21  59 E14       29.66F WCI  25
GREAT FALLS MT FAIR      37  34  89 SW5       29.59S
CHEYENNE WY    CLOUDY    39  33  79 SW20      29.63F
SCOTTSBLUFF NE FAIR      40  37  89 E9        29.62F
OMAHA NE       CLOUDY    39  30  70 NW8       29.65F
DES MOINES IA  CLOUDY    39  33  79 NW14      29.58R
DAVENPORT IA   RAIN      42  40  92 W16       29.47S
CHICAGO IL     LGT RAIN  60  57  89 S12       29.35F
EAU CLAIRE WI  CLOUDY    35  29  78 N8        29.49F
LA CROSSE WI   CLOUDY    41  36  82 NW12      29.46F
$$

  *****  SOME NATIONAL WEATHER *****

CITY           SKY/WX    TMP DP  RH WIND       PRES   REMARKS
LA GUARDIA NY  DRZL/FOG  57  56  96 CALM      29.85R VSB 1/2
RALEIGH NC     FAIR      65  59  81 SW12      29.85S
ATLANTA GA     MOCLDY    65  56  72 S9        29.79F
NEW ORLEANS LA LGT RAIN  70  60  70 N3        29.71R
OKLAHOMA CITY  FAIR      39  38  96 S5        29.76S
ALBUQUERQUE NM FAIR      55  23  28 SW10      29.76F
SALT LAKE CITY CLOUDY    45  43  93 W5        29.74S
LOS ANGELES CA MOCLDY    58  55  90 S7        29.83S
BOISE ID       CLOUDY    42  37  82 NW7       29.86R
SEATTLE WA     CLOUDY    45  39  79 SW12      30.01R
$$

*** WEATHER ACROSS MANITOBA...SASKATCHEWAN AND ONTARIO ***
                ***ONTARIO***

CITY           SKY/WX    TMP DP  RH WIND       PRES   REMARKS
GERALDTON      LGT SNOW  16  14  93 NE14G21   29.62F DRFTSNOWWCI   1
THUNDER BAY    CLOUDY    23  19  86 N7        29.60F WCI  15
SIOUX LOOKOUT  FLURRIES  19  12  73 NE7G17    29.72F WCI  10
TORONTO        CLEAR     50  48  93 S2        29.66S
BIG TROUT LK   CLEAR     19   9  63 NE7       30.05F WCI  10
PICKLE LAKE    NOT AVBL
DRYDEN         FLURRIES  19  16  86 NE17G26   29.71F WCI   4
KENORA         FLURRIES  23  18  80 NE13G23   29.74F WCI  11
$$
                *** MANITOBA***

CITY           SKY/WX    TMP DP  RH WIND       PRES   REMARKS
BRANDON        PTCLDY    27  18  69 NE12      29.82S WCI  16
DAUPHIN        PTCLDY    21  18  86 W7        29.89S WCI  13
ISLAND LAKE    CLEAR     21   9  58 E5        30.02S WCI  15
PILOT MOUND      N/A     28  14  54 NE7         N/A  WCI  21
THE PAS        CLEAR     28   9  43 E6        29.97S WCI  22
THOMPSON       CLEAR     23   1  39 E3        30.06S
WINNIPEG       PTCLDY    32  14  47 NE13      29.79F WCI  22
LYNN LAKE      CLEAR     21   5  49 SE3       30.00S
CHURCHILL      CLEAR      9   1  72 S9        30.13R WCI  -5
GILLAM         CLEAR     16   1  53 SE6       30.12S WCI   7
$$
                ***SASKATCHEWAN***

CITY           SKY/WX    TMP DP  RH WIND       PRES   REMARKS
ESTEVAN        PTCLDY    28  23  80 E10       29.80S WCI  19
KINDERSLEY     SNOW      32  30  93 E20       29.68S VSB 1/2 WCI  20
LLOYDMINSTER   LGT SNOW  30  30 100 SE15      29.77S WCI  19
PRINCE ALBERT  CLOUDY    32  21  64 E9        29.86S WCI  24
REGINA         PTCLDY    30  19  64 E15G22    29.79S WCI  19
YORKTON        CLEAR     23  21  93 NE2       29.86F



USA.gov is the U.S. government's official web portal to all federal, state and local government web resources and services.